Weather observations for the past three days for
Omak Airport
Imperial (Metric)
Date Time (pdt) Wind (mph) Vis. (mi.) Weather Sky Cond. Temperature (ºF) Relative Humidity Wind Chill (°F) Heat Index (°F) Pressure Precipitation (in)
Air Dwpt 6 hour altimeter (in) sea level (mb) 1 hr 3 hr 6 hr
Max. Min.
16 07:53 N 12 10.00 Fair CLR 75.9 46.9 36% 78 29.99 1014.3
16 06:53 N 10 10.00 Fair CLR 73 44.1 35% 29.98 1014.0
16 05:53 N 8 10.00 Fair CLR 68 43 40% 29.97 1013.7
16 04:53 N 9 10.00 Fair CLR 66.9 45 79 66 45% 29.95 1013.2
16 03:53 N 12 10.00 Fair CLR 73 43 34% 29.94 1012.5
16 02:53 NW 6 10.00 Fair CLR 66.9 46 47% 29.92 1012.2
16 01:53 NW 8 10.00 Fair CLR 69.1 46.9 45% 29.91 1011.9
16 00:53 NW 6 10.00 Fair CLR 72 46.9 41% 29.91 1011.6
15 23:53 W 3 10.00 Fair CLR 77 46.9 35% 78 29.9 1011.2
15 22:53 W 5 10.00 Fair CLR 75 46 100 75 36% 77 29.88 1010.7
15 21:53 SW 6 10.00 Fair CLR 80.1 48 33% 79 29.88 1010.5
15 20:53 S 7 10.00 Fair CLR 86 44.1 23% 83 29.86 1009.8
15 19:53 S 5 10.00 Fair CLR 93 44.1 18% 89 29.84 1009.4
15 18:53 S 7 10.00 Fair CLR 97 44.1 16% 93 29.84 1009.3
15 17:53 SE 12 10.00 Fair CLR 99 44.1 15% 95 29.85 1009.5
15 16:53 SE 13 10.00 Fair CLR 99 45 100 91.9 16% 95 29.86 1009.9
15 15:53 SW 9 G 17 10.00 Fair CLR 99 46 16% 95 29.87 1010.4
15 14:53 SW 12 10.00 Fair CLR 98.1 44.1 16% 94 29.89 1010.9
15 13:53 S 9 G 17 10.00 Fair CLR 97 45 17% 93 29.9 1011.3
15 12:53 S 7 10.00 Fair CLR 95 41 15% 91 29.92 1011.8
15 11:53 NE 9 10.00 Fair CLR 95 37 13% 90 29.92 1012.0
15 10:53 N 10 10.00 Fair CLR 91.9 37.9 91.9 68 15% 88 29.94 1012.6
15 09:53 N 12 10.00 Fair CLR 88 39.9 18% 84 29.94 1012.8
15 08:53 N 8 10.00 Fair CLR 82.9 44.1 25% 81 29.95 1013.1
15 07:53 N 6 10.00 Fair CLR 77 46.9 35% 78 29.95 1013.0
15 06:53 N 8 10.00 Fair CLR 73 45 37% 29.94 1012.5
15 05:53 NW 10 10.00 A Few Clouds FEW120 70 45 41% 29.92 1012.0
15 04:53 NW 10 10.00 Partly Cloudy SCT120 71.1 45 81 66.9 39% 29.91 1011.6
15 03:53 N 10 10.00 A Few Clouds FEW120 69.1 46 44% 29.9 1011.2
15 02:53 NW 9 10.00 A Few Clouds FEW120 72 46 40% 29.88 1010.6
15 01:53 NW 13 10.00 A Few Clouds FEW120 75.9 46 35% 78 29.87 1010.3
15 00:53 NW 12 10.00 Fair CLR 75.9 46 35% 78 29.87 1010.2
14 23:53 NW 9 10.00 Fair CLR 78.1 45 31% 78 29.86 1009.8
14 22:53 NW 9 10.00 Fair CLR 78.1 44.1 102 78.1 30% 78 29.84 1009.3
14 21:53 NW 8 10.00 Fair CLR 79 45 30% 79 29.83 1009.0
14 20:53 Calm 10.00 Fair CLR 82.9 50 32% 81 29.81 1008.2
14 19:53 SW 3 10.00 Fair CLR 95 42.1 16% 91 29.8 1007.7
14 18:53 Calm 10.00 Fair CLR 100.9 36 10% 96 29.8 1007.8
14 17:53 E 3 10.00 A Few Clouds FEW110 100.9 36 10% 96 29.8 1008.0
14 16:53 E 7 10.00 Fair CLR 102 36 102.9 93.9 10% 97 29.81 1008.4
14 15:53 Vrbl 3 10.00 Fair CLR 102 37 11% 97 29.83 1008.9
14 14:53 Vrbl 7 10.00 Fair CLR 100 37.9 12% 95 29.84 1009.3
14 13:53 Vrbl 5 10.00 Fair CLR 99 36 11% 94 29.85 1009.6
14 12:53 SW 3 10.00 Fair CLR 97 33.1 10% 92 29.86 1010.1
14 11:53 N 10 G 18 10.00 Fair CLR 98.1 36 11% 93 29.88 1010.5
14 10:53 N 14 10.00 Fair CLR 95 37.9 95 66 14% 90 29.89 1010.9
14 09:53 N 12 10.00 Fair CLR 89.1 44.1 21% 86 29.9 1011.3
14 08:53 N 10 10.00 Fair CLR 84 48 29% 82 29.91 1011.6
14 07:53 N 9 10.00 Fair CLR 79 48 34% 79 29.91 1011.7
14 06:53 N 9 10.00 Fair CLR 75 45 34% 77 29.91 1011.6
14 05:53 N 9 10.00 Fair CLR 71.1 44.1 38% 29.9 1011.3
14 04:53 N 9 10.00 Fair CLR 66 45 82.9 66 47% 29.89 1011.1
14 03:53 NW 8 10.00 Fair CLR 68 45 44% 29.88 1010.7
14 02:53 NW 12 10.00 Fair CLR 75.9 43 31% 77 29.87 1010.2
14 01:53 NW 7 10.00 Fair CLR 72 43 35% 29.87 1010.3
14 00:53 NW 9 10.00 Fair CLR 75 44.1 33% 77 29.87 1010.2
13 23:53 W 8 10.00 Fair CLR 79 42.1 27% 78 29.86 1009.9
13 22:53 NW 7 10.00 Fair CLR 81 42.1 104 78.1 25% 79 29.84 1009.0
13 21:53 W 6 10.00 Fair CLR 89.1 39.9 18% 85 29.82 1008.6
13 20:53 S 5 10.00 A Few Clouds FEW120 90 44.1 20% 86 29.8 1007.9
13 19:53 S 6 10.00 Fair CLR 97 44.1 16% 93 29.8 1007.8
13 18:53 S 6 10.00 Fair CLR 100 42.1 14% 96 29.81 1008.0
13 17:53 S 7 10.00 A Few Clouds FEW110 102.9 37 10% 98 29.82 1008.3
13 16:53 S 7 10.00 Fair CLR 102.9 39 102.9 91 11% 98 29.83 1008.9
13 15:53 SE 7 10.00 Fair CLR 102.9 39.9 11% 98 29.85 1009.6
13 14:53 S 10 10.00 Fair CLR 100.9 39.9 12% 96 29.87 1010.3
13 13:53 Vrbl 6 G 16 10.00 Fair CLR 100 42.1 14% 96 29.89 1010.9
13 12:53 S 7 10.00 Fair CLR 97 48 19% 93 29.9 1011.4
13 11:53 Vrbl 5 10.00 Fair CLR 91.9 50 24% 89 29.92 1012.1
13 10:53 NE 8 10.00 Fair CLR 91.9 48.9 91.9 64.9 23% 89 29.94 1012.6
13 09:53 N 10 10.00 Fair CLR 88 50 27% 85 29.95 1013.0
13 08:53 N 8 10.00 Fair CLR 84 50 31% 82 29.96 1013.4
Date Time (pdt) Wind (mph) Vis. (mi.) Weather Sky Cond. Air Dwpt Max. Min. Relative Humidity Wind Chill (°F) Heat Index (°F) altimeter (in) sea level (mb) 1 hr 3 hr 6 hr
6 hour
Temperature (ºF) Pressure Precipitation (in)